COSMOS 567

Satellite information

Favourite Embed

Satellite Type and Status

PAYLOADIN ORBIT

Key statistics

Satellite COSMOS 567 at a glance.

Uptime

19086

Days in orbit

Revolutions

≈ 12.5

Per day

Orbit

LEO

Low Earth Orbit

Inclination

74.0

Latest

Satellite identification and parameters

Extended collection of information and parameters for COSMOS 567.

Object identification

Identified? True

Debris? False

Object name: COSMOS 567

International designator: 1973-037D

Object number (NORAD): 6678

Object ID (CCSDS): 6678

Country: COMMONWEALTH OF INDEPENDENT STATES (CIS)

Current information (Y/N): Y

RCS size: MEDIUM

Orbital parameters

Period: 114.823 minutes

Inclination: 74.0182 deg

SMA: 7825.523 km

Apoapsis: 1482.545 km

Periapsis: 1412.231 km

RAAN: 135.8792 deg

Eccentricy: 0.00449262

Argument of periapsis: 45.3211 deg

Mean anomaly: 127.8656 deg

Mean motion: 12.54101467 rev/day

Mean motion (dot): 0.00000014 rev/day2

B* drag term: 0.00018750638 1/REarth

Two-line elements (TLE)

Creation date: Sept. 8, 2025, 6:18 p.m.

Reference frame: TEME

Reference center: EARTH

Epoch: Sept. 8, 2025, 10:29 a.m. UTC

TLE line 0: 0 COSMOS 567

TLE line 1: 1 06678U 73037D 25251.43693343 .00000014 00000-0 18751-3 0 9997

TLE line 2: 2 06678 74.0182 135.8792 0044926 45.3211 127.8656 12.54101467392007

Live tracking on map

Real-time ground track for satellite COSMOS 567.

In-orbit conjunctions

A list of the most updated potential collisions computed for object COSMOS 567.

Target Orbit TCA Probability of collision Miss distance Type
DELTA 1 DEB SSO 2025-01-23 17:23:02 0.0003615591 239.0 (m) DEBRIS

Associated space launch

Military communications satellites

COSMOS 567 was lifted into orbit during the mission ‘Kosmos-3M | Strela-1M 41-48’, on board a Kosmos-3M space rocket.

The launch took place on June 8, 1973, 3:50 p.m. from 132/1 (132L).

For more information about the launch, click the button.

Launch to space Kosmos-3M | Strela-1M 41-48
Kosmos-3M | Strela-1M 41-48

Agency: N/A

Status: Launch Successful

Launch date: June 8, 1973, 3:50 p.m. UTC

Rocket: Kosmos-3M

Launch pad: 132/1 (132L)

Location: Plesetsk Cosmodrome, Russian Federation

...

Latest news about this satellite

There are no fresh news available about this satellite. Check back as we update our databases every day.


Newsletter sign-up

Weekly statistics, charts and insights to help you stay on top of the space industry.